"Time","Temp","Dewpoint","Humidity","Pressure","Direction","Speed","Gust","Precip","PrecipRate"
"00:04:57","76.5","64.4","66.3","30.03","195","4.5","7.2","0.00","0.00"
"00:09:56","76.5","64.4","66.4","30.03","204","4.6","8.4","0.00","0.00"
"00:14:56","76.6","64.4","66","30.03","194","3.5","8.4","0.00","0.00"
"00:19:56","76.6","64.4","66","30.03","205","5.5","12","0.00","0.00"
"00:24:56","76.6","64.4","66","30.03","208","5.7","10.4","0.00","0.00"
"00:29:59","76.8","64.6","66","30.04","195","4.8","10.8","0.00","0.00"
"00:34:59","76.7","64.5","66","30.04","214","5.4","15.6","0.00","0.00"
"00:39:59","76.8","64.6","66","30.04","208","6.6","16.1","0.00","0.00"
"00:44:55","76.8","64.6","66","30.06","209","6.5","14.4","0.00","0.00"
"00:49:59","76.8","64.6","66","30.06","221","4.7","10.8","0.00","0.00"
"00:54:59","76.6","64.5","66.2","30.06","219","4.8","9.6","0.00","0.00"
"00:59:59","76.6","64.8","67","30.08","237","4.9","8.4","0.00","0.00"
"01:04:59","76.6","64.8","67","30.08","233","5.3","12","0.00","0.00"
"01:09:59","76.6","64.8","67","30.08","227","4.9","11.5","0.00","0.00"
"01:14:59","76.6","64.8","67","30.09","254","3.9","9.6","0.00","0.00"
"01:19:59","76.6","64.6","66.4","30.09","250","8.1","17.3","0.00","0.00"
"01:24:59","76.6","64.2","65.6","30.09","288","5.9","12","0.00","0.00"
"01:29:59","76.3","63.6","64.8","30.09","318","5.6","10.8","0.00","0.00"
"01:34:58","75.8","63","64.7","30.09","322","6.2","15","0.00","0.00"
"01:39:59","75.1","62.9","65.8","30.09","309","5.3","15","0.00","0.00"
"01:44:55","74.5","62.9","67.1","30.09","312","2.8","7.2","0.00","0.00"
"01:49:56","74","62.8","68","30.09","280","3.9","8.4","0.00","0.00"
"01:54:59","73.5","62.7","68.9","30.09","263","2.8","6.9","0.00","0.00"
"01:59:59","73.1","62.7","69.9","30.09","275","2.4","13.2","0.00","0.00"
"02:04:56","72.8","62.4","70","30.09","280","4.8","12.7","0.00","0.00"
"02:09:59","72.7","62.8","71","30.09","325","3.1","8.4","0.00","0.00"
"02:14:55","72.6","62.7","71","30.09","320","3.3","7.2","0.00","0.00"
"02:19:57","72.4","62.9","72","30.08","296","2.9","8.4","0.00","0.00"
"02:24:58","72.1","62.7","72.3","30.08","282","3.1","8.1","0.00","0.00"
"02:29:58","71.9","62.8","73","30.09","302","3","10.8","0.00","0.00"
"02:34:58","71.7","62.7","73.2","30.09","302","3","10.4","0.00","0.00"
"02:39:58","71.5","62.8","74","30.09","307","2.4","8.4","0.00","0.00"
"02:44:59","71.4","62.7","74","30.09","333","2.4","4.8","0.00","0.00"
"02:49:59","71.2","62.7","74.3","30.09","292","2.4","7.2","0.00","0.00"
"02:54:59","71.1","62.8","75","30.09","293","2.9","4.8","0.00","0.00"
"02:59:59","71","62.7","75","30.09","330","2.5","6","0.00","0.00"
"03:04:58","70.9","62.6","75","30.08","326","1.9","4.8","0.00","0.00"
"03:09:58","70.7","62.4","75","30.08","327","0.4","2.4","0.00","0.00"
"03:14:59","70.5","62.5","75.7","30.08","327","0.1","1.2","0.00","0.00"
"03:19:56","70.4","62.5","76","30.07","327","0","0","0.00","0.00"
"03:24:56","70.2","62.3","76","30.07","327","0","0","0.00","0.00"
"03:29:57","69.9","62.4","76.8","30.07","327","0","1.2","0.00","0.00"
"03:34:59","69.6","62.1","77","30.07","327","0.1","1.2","0.00","0.00"
"03:39:57","69.2","62","77.9","30.07","327","0.7","2.4","0.00","0.00"
"03:44:58","68.8","61.9","78.7","30.07","327","0","0","0.00","0.00"
"03:49:59","68.6","61.8","79","30.07","327","0","0","0.00","0.00"
"03:54:59","68.3","61.8","79.7","30.07","327","0","0","0.00","0.00"
"03:59:56","68.1","61.7","80","30.07","327","0","0","0.00","0.00"
"04:04:57","67.8","61.6","80.7","30.06","327","0","0","0.00","0.00"
"04:09:57","67.4","61.3","80.7","30.06","327","0","0","0.00","0.00"
"04:14:59","67.1","61.4","82","30.07","327","0","0","0.00","0.00"
"04:19:56","67","61.3","82","30.07","327","0","0","0.00","0.00"
"04:24:57","66.8","61.1","82","30.07","327","0","0","0.00","0.00"
"04:29:58","66.5","61.2","82.8","30.07","327","0","0","0.00","0.00"
"04:34:58","66.4","61.1","83","30.07","327","0","0","0.00","0.00"
"04:39:56","66.2","61.1","83.4","30.07","327","0","0","0.00","0.00"
"04:44:58","66","60.8","83.5","30.08","327","0","0","0.00","0.00"
"04:49:57","65.7","60.6","83.9","30.08","327","0","0","0.00","0.00"
"04:54:56","65.4","60.4","84","30.08","327","0","0","0.00","0.00"
"04:59:56","65.1","60.1","84.1","30.09","327","0","0","0.00","0.00"
"05:04:58","64.7","60.3","85.7","30.09","327","0","0","0.00","0.00"
"05:09:57","64.4","60.1","86","30.09","327","0","0","0.00","0.00"
"05:14:59","64.3","60","86","30.09","327","0","0","0.00","0.00"
"05:19:56","63.9","59.7","86.3","30.09","327","0","0","0.00","0.00"
"05:24:57","63.7","59.8","87","30.09","327","0","0","0.00","0.00"
"05:29:58","63.5","59.6","87","30.09","327","0","0","0.00","0.00"
"05:34:59","63.1","59.4","87.5","30.08","327","0","0","0.00","0.00"
"05:39:57","62.9","59.3","88","30.08","327","0","0","0.00","0.00"
"05:44:57","62.6","59","88","30.09","327","0","0","0.00","0.00"
"05:49:59","62.4","58.9","88.6","30.09","327","0","0","0.00","0.00"
"05:54:59","62.3","59","89","30.09","327","0","0","0.00","0.00"
"05:59:56","62.1","58.8","89","30.09","327","0","0","0.00","0.00"
"06:04:58","61.8","58.7","89.5","30.09","327","0","0","0.00","0.00"
"06:09:58","61.8","58.8","90","30.09","327","0","0","0.00","0.00"
"06:14:59","61.7","58.8","90.3","30.09","327","0","0","0.00","0.00"
"06:19:56","61.9","59.1","90.7","30.09","327","0","0","0.00","0.00"
"06:24:57","61.9","58.9","90","30.09","327","0","0","0.00","0.00"
"06:29:58","61.8","58.8","90","30.10","327","0","0","0.00","0.00"
"06:34:59","61.7","58.7","90","30.10","327","0","0","0.00","0.00"
"06:39:56","61.7","58.7","90","30.10","327","0","0","0.00","0.00"
"06:44:57","61.6","58.6","90","30.11","327","0","0","0.00","0.00"
"06:49:58","61.4","58.6","90.7","30.11","327","0","0","0.00","0.00"
"06:54:59","61.4","58.7","91","30.11","327","0","0","0.00","0.00"
"06:59:56","61.4","58.7","91","30.11","327","0","0","0.00","0.00"
"07:04:57","61.4","58.7","91","30.11","327","0","0","0.00","0.00"
"07:09:57","61.4","58.7","91","30.11","327","0","0","0.00","0.00"
"07:14:58","61.5","58.9","91.2","30.12","327","0","0","0.00","0.00"
"07:19:59","61.6","59","91.3","30.12","327","0","0","0.00","0.00"
"07:24:56","61.6","58.9","91","30.12","327","0","0","0.00","0.00"
"07:29:56","61.7","59","91","30.12","327","0","0","0.00","0.00"
"07:34:56","61.7","59","91","30.11","327","0","0","0.00","0.00"
"07:39:57","61.7","59","91","30.11","327","0","0","0.00","0.00"
"07:44:58","61.7","59","91","30.12","327","0","0","0.00","0.00"
"07:49:59","61.8","59.1","91","30.12","327","0","0","0.00","0.00"
"07:54:59","62","59.3","91","30.12","327","0","0","0.00","0.00"
"07:59:56","62.2","59.5","91","30.12","327","0","0","0.00","0.00"
"08:04:57","62.5","59.8","91","30.12","327","0","0","0.00","0.00"
"08:09:56","62.8","60.2","91.4","30.12","327","0","0","0.00","0.00"
"08:14:58","63.3","60.6","91","30.13","327","0.2","1.2","0.00","0.00"
"08:19:58","64.1","61","89.6","30.13","327","0.4","1.2","0.00","0.00"
"08:24:59","64.9","61.3","88","30.13","327","0","0","0.00","0.00"
"08:29:59","65.4","61.7","87.7","30.14","327","0.2","1.2","0.00","0.00"
"08:34:56","66.1","61.8","86","30.14","327","1.2","2.4","0.00","0.00"
"08:39:57","66.6","61.9","85","30.14","327","0.2","2.3","0.00","0.00"
"08:44:57","67.1","62.3","84.6","30.14","327","0","0","0.00","0.00"
"08:49:58","67.9","62.5","83","30.14","327","0","0","0.00","0.00"
"08:54:58","68.9","63.2","82","30.14","327","0","0","0.00","0.00"
"08:59:59","69.9","63.6","80.5","30.14","327","0","0","0.00","0.00"
"09:04:56","70.8","63.8","78.7","30.14","327","0","0","0.00","0.00"
"09:09:59","71.5","64.3","78","30.14","327","0.1","1.2","0.00","0.00"
"09:14:57","72.3","64.1","75.5","30.14","327","0.2","2.4","0.00","0.00"
"09:19:57","72.8","64","73.9","30.14","327","0.7","2.4","0.00","0.00"
"09:24:57","73.3","64.7","74.4","30.14","327","0","1.2","0.00","0.00"
"09:29:58","73.8","64.2","72","30.15","323","0.5","2.4","0.00","0.00"
"09:34:58","74.1","64.5","72.1","30.15","313","1.2","2.4","0.00","0.00"
"09:39:58","74.3","64.3","71","30.15","313","0.5","2.4","0.00","0.00"
"09:44:59","74.4","63.9","69.8","30.15","325","2.3","6","0.00","0.00"
"09:49:56","74.5","63.4","68.3","30.15","347","1.4","5.8","0.00","0.00"
"09:54:59","74.8","63.8","68.6","30.15","347","0.8","2.4","0.00","0.00"
"09:59:59","75","64.1","68.9","30.15","347","0.2","1.2","0.00","0.00"
"10:04:59","75.4","64.5","69","30.15","347","0","0","0.00","0.00"
"10:09:59","75.5","63.8","67.2","30.15","211","0.2","3.6","0.00","0.00"
"10:14:55","75.6","64.3","67.8","30.16","198","2.1","6","0.00","0.00"
"10:19:56","75.7","64","67.1","30.16","190","1.3","3.5","0.00","0.00"
"10:24:59","75.9","64","66.6","30.16","298","1","4.8","0.00","0.00"
"10:29:59","76","64","66.5","30.16","320","2.3","4.8","0.00","0.00"
"10:34:59","76.1","64.4","67.2","30.16","326","0.7","3.5","0.00","0.00"
"10:39:56","76.2","64.8","67.6","30.16","329","1.5","4.8","0.00","0.00"
"10:44:56","76.4","64.6","66.9","30.16","345","2","4.8","0.00","0.00"
"10:49:56","76.6","64.7","66.9","30.15","344","1.1","4.8","0.00","0.00"
"10:54:56","76.7","64.6","66.4","30.15","344","0.8","4.8","0.00","0.00"
"10:59:59","76.8","64.4","65.5","30.15","341","1.8","4.8","0.00","0.00"
"11:04:58","77.6","65.3","65.9","30.15","338","1.4","3.6","0.00","0.00"
"11:09:57","78.2","66.2","66.6","30.15","18","2.1","4.8","0.00","0.00"
"11:14:59","78.3","66","66.1","30.15","84","2.7","4.8","0.00","0.00"
"11:19:58","78.6","65.6","64.6","30.15","98","2.8","4.8","0.00","0.00"
"11:24:58","78.3","64.7","62.9","30.15","110","1.3","3.6","0.00","0.00"
"11:29:58","78.3","65.1","63.7","30.15","107","0.3","2.4","0.00","0.00"
"11:34:59","78.5","65","63.3","30.15","63","1.4","3.6","0.00","0.00"
"11:39:59","78.5","64.9","63.2","30.15","59","0.5","2.4","0.00","0.00"
"11:44:57","79","65.3","62.9","30.15","60","1.1","3.6","0.00","0.00"
"11:49:59","80.1","66","62.2","30.15","61","1.2","3.5","0.00","0.00"
"11:54:57","80.5","65.4","60","30.15","90","1.4","4.8","0.00","0.00"
"11:59:58","81","65.7","59.7","30.15","101","2.1","7.2","0.00","0.00"
"12:04:56","81.4","65","57.6","30.14","187","4","8.4","0.00","0.00"
"12:09:57","81.8","65.6","58","30.14","216","3.4","8.4","0.00","0.00"
"12:14:59","82.1","65.5","57.2","30.14","193","4.2","8.4","0.00","0.00"
"12:19:56","82.2","65.6","57.3","30.14","209","4.8","8.4","0.00","0.00"
"12:24:58","82.3","66.5","58.9","30.14","229","3.7","7.2","0.00","0.00"
"12:29:59","82.8","65.9","56.8","30.14","189","1.9","6","0.00","0.00"
"12:34:56","83.4","66.8","57.4","30.13","226","3.7","8.4","0.00","0.00"
"12:39:58","83","65.3","55.3","30.13","143","2.9","7.2","0.00","0.00"
"12:44:56","83.3","65.8","55.6","30.13","187","3.6","8.4","0.00","0.00"
"12:49:57","83.3","66.5","57","30.13","238","3.4","8.4","0.00","0.00"
"12:54:50","83.3","66.1","56.3","30.13","188","3.1","8.1","0.00","0.00"
"12:59:58","83.7","66.2","55.9","30.13","238","5.1","10.4","0.00","0.00"
"13:04:44","82.6","65.4","56.2","30.13","198","4.1","8.4","0.00","0.00"
"13:09:57","82.2","64.3","54.8","30.13","256","4.5","10.8","0.00","0.00"
"13:14:59","82.2","65","56.2","30.13","198","3.4","6.9","0.00","0.00"
"13:19:45","82.7","65.2","55.7","30.12","138","3.1","7.2","0.00","0.00"
"13:24:59","83.7","64.8","53.1","30.12","141","3.6","8.1","0.00","0.00"
"13:29:56","84.1","65","52.9","30.12","160","3","7.2","0.00","0.00"
"13:34:57","83.9","64.5","52.3","30.12","136","2.6","4.8","0.00","0.00"
"13:39:59","84.1","65.9","54.3","30.12","148","2.4","8.4","0.00","0.00"
"13:44:56","84.8","65.5","52.5","30.12","158","5.2","12","0.00","0.00"
"13:49:57","84.4","65.6","53.4","30.11","165","4.4","8.4","0.00","0.00"
"13:54:58","84.4","66.3","54.7","30.11","168","2.2","6.9","0.00","0.00"
"13:59:59","85","66.5","54.1","30.11","206","4.9","8.4","0.00","0.00"
"14:04:56","84.4","64.9","52","30.11","180","4","8.4","0.00","0.00"
"14:09:57","83.5","64.9","53.6","30.11","218","3.6","7.2","0.00","0.00"
"14:14:59","83.2","65.7","55.7","30.11","227","3.9","7.2","0.00","0.00"
"14:19:57","83.4","65","54.1","30.11","185","4","12","0.00","0.00"
"14:24:58","84.3","66.4","55","30.11","181","2.1","4.8","0.00","0.00"
"14:29:59","84.4","65","52.4","30.11","195","2.1","4.8","0.00","0.00"
"14:34:56","83.9","65","53.1","30.10","119","3.3","6","0.00","0.00"
"14:39:57","83.6","64.9","53.3","30.10","114","2.7","6","0.00","0.00"
"14:44:58","83.3","64.3","52.9","30.10","152","4.3","10.8","0.00","0.00"
"14:49:59","83.3","65","54.3","30.10","213","4.2","10.4","0.00","0.00"
"14:54:56","83.9","64.7","52.6","30.10","317","3.6","7.2","0.00","0.00"
"14:59:57","83.8","64.9","53.1","30.11","241","3.6","7.2","0.00","0.00"
"15:04:59","83.5","64","52","30.11","317","4.1","10.8","0.00","0.00"
"15:09:56","83.7","66","55.2","30.11","274","1.9","5.8","0.00","0.00"
"15:14:58","84.5","65.4","52.8","30.11","256","2.5","4.8","0.00","0.00"
"15:19:59","84.3","64.6","51.7","30.10","297","0.8","4.8","0.00","0.00"
"15:24:56","85.2","65.6","52.2","30.10","290","1.9","4.8","0.00","0.00"
"15:29:57","84.8","65.1","51.8","30.10","93","1.9","3.6","0.00","0.00"
"15:34:59","84.3","64.9","52.4","30.09","111","1.6","4.8","0.00","0.00"
"15:39:56","84.5","65.1","52.2","30.09","161","1.7","4.6","0.00","0.00"
"15:44:58","84.6","64.5","51.1","30.09","197","1.4","7.2","0.00","0.00"
"15:49:59","84.4","64.4","51.3","30.08","197","2.3","4.8","0.00","0.00"
"15:54:56","83.8","64.8","53.1","30.08","215","3.1","6","0.00","0.00"
"15:59:58","83.2","63.6","51.7","30.08","220","2.2","4.8","0.00","0.00"
"16:04:56","83","63.3","51.5","30.08","222","1.1","3.6","0.00","0.00"
"16:09:57","83.2","63.2","51","30.08","221","0.7","2.4","0.00","0.00"
"16:14:58","84.4","64.2","50.8","30.08","222","1.2","3.6","0.00","0.00"
"16:19:59","85.2","64.7","50.5","30.07","147","2","4.8","0.00","0.00"
"16:24:55","85","65.4","52","30.07","62","1.4","4.8","0.00","0.00"
"16:29:56","86","64.1","48.1","30.07","316","2.8","7.2","0.00","0.00"
"16:34:58","86.1","63.4","46.8","30.06","337","3.9","7.2","0.00","0.00"
"16:39:59","86.2","65","49.3","30.06","318","1.7","10.8","0.00","0.00"
"16:44:56","86.5","64.5","47.9","30.06","299","2.4","8.4","0.00","0.00"
"16:49:57","85.9","63.7","47.7","30.06","344","3.7","8.4","0.00","0.00"
"16:54:58","84.8","63.1","48.4","30.06","336","2.8","5.8","0.00","0.00"
"16:59:59","83.8","63","49.7","30.06","347","3.2","7.2","0.00","0.00"
"17:04:56","82.9","62.5","50.2","30.06","336","5.8","13.2","0.00","0.00"
"17:09:57","82.1","62.1","50.8","30.06","345","3.8","8.4","0.00","0.00"
"17:14:58","81.7","62.2","51.6","30.06","332","3.1","7.2","0.00","0.00"
"17:19:57","81.5","62.3","52.2","30.06","342","5","15.6","0.00","0.00"
"17:24:56","81","62.6","53.7","30.06","353","6.6","18.4","0.00","0.00"
"17:29:58","80.3","62.9","55.4","30.06","350","4.3","11.5","0.00","0.00"
"17:34:59","79.6","62.8","56.7","30.05","344","3.5","10.8","0.00","0.00"
"17:39:56","79.1","62.7","57.3","30.05","336","4","15","0.00","0.00"
"17:44:56","78.6","62.8","58.3","30.06","344","5.2","15","0.00","0.00"
"17:49:59","78.2","62.6","58.7","30.06","308","5.1","21.6","0.00","0.00"
"17:54:58","77.3","63.7","63.1","30.06","314","11.4","25.3","0.03","0.02"
"17:59:57","73.5","64.4","73.2","30.11","333","10.2","23","0.06","0.06"
"18:04:57","70.2","64","80.7","30.11","328","6.5","19.6","0.07","0.07"
"18:09:56","68.4","63.5","84.5","30.11","348","5.8","17.3","0.07","0.07"
"18:14:59","67.5","63.4","86.8","30.14","348","5.9","15","0.07","0.07"
"18:19:58","67.1","63.1","87","30.14","354","5","17.3","0.07","0.07"
"18:24:57","67","62.7","86.2","30.14","339","4.3","12","0.07","0.07"
"18:29:56","66.9","62.4","85.4","30.15","353","2.7","11.5","0.07","0.07"
"18:34:56","66.8","62.2","85.2","30.15","356","1.8","8.1","0.07","0.07"
"18:39:59","66.7","62.2","85.3","30.15","346","2.1","6","0.07","0.07"
"18:44:59","66.6","61.6","84.2","30.16","338","4.8","12","0.07","0.07"
"18:49:57","66.5","61.1","82.7","30.16","355","3.4","10.8","0.07","0.07"
"18:54:56","66.5","60.6","81.6","30.16","345","3.7","8.4","0.07","0.07"
"18:59:56","66.4","60.3","80.9","30.16","351","3.9","10.8","0.07","0.04"
"19:04:56","66.2","59.8","80.2","30.16","347","5.7","16.1","0.07","0.01"
"19:09:58","65.9","58.8","77.8","30.16","2","7.9","23","0.07","0.00"
"19:14:59","65.5","58","76.8","30.17","343","9.3","21.9","0.07","0.00"
"19:19:58","65.1","57.7","77","30.17","334","6.8","20.7","0.07","0.00"
"19:24:58","64.8","57.8","78","30.17","332","5.4","19.2","0.07","0.00"
"19:29:58","64.4","57.5","78.2","30.17","347","6.9","18.4","0.07","0.00"
"19:34:57","64.1","57.1","78","30.16","333","5","13.2","0.07","0.00"
"19:39:58","63.9","56.6","77.1","30.16","341","4.1","15","0.07","0.00"
"19:44:59","63.8","56.2","76.3","30.18","341","5.1","13.2","0.07","0.00"
"19:49:59","63.7","56","75.8","30.18","342","6.4","16.1","0.07","0.00"
"19:54:59","63.6","55.4","74.5","30.18","355","6.2","16.1","0.07","0.00"
"19:59:56","63.6","55.1","73.9","30.19","359","5.9","18","0.07","0.00"
"20:04:56","63.5","54.8","73.1","30.19","5","5.6","18.4","0.07","0.00"
"20:09:59","63.4","54.8","73.4","30.19","330","3.6","12","0.07","0.00"
"20:14:56","63.1","54.4","73","30.19","339","5.6","13.2","0.07","0.00"
"20:19:57","63","53.8","72","30.19","337","7.4","18.4","0.07","0.00"
"20:24:58","62.9","53.8","72.2","30.19","340","5","12","0.07","0.00"
"20:29:58","62.8","53.9","72.8","30.21","342","4.1","11.5","0.07","0.00"
"20:34:59","62.5","53.7","73","30.21","332","3.1","12","0.07","0.00"
"20:39:56","62.3","53.5","72.9","30.21","351","4.1","13.2","0.07","0.00"
"20:44:57","62.2","53.1","72","30.22","347","4.9","16.1","0.07","0.00"
"20:49:58","62.1","52.7","71.5","30.22","341","4.8","16.1","0.07","0.00"
"20:54:56","62","52.7","71.5","30.22","335","2.7","7.2","0.07","0.00"
"20:59:57","61.8","52.7","71.8","30.24","357","3","10.8","0.07","0.00"
"21:04:58","61.8","52.6","71.7","30.24","354","2.1","6","0.07","0.00"
"21:09:57","61.8","52.3","71","30.24","351","3.8","8.4","0.07","0.00"
"21:14:56","61.8","52.3","71","30.24","349","2.8","7.2","0.07","0.00"
"21:19:57","61.7","52","70.4","30.24","350","5.4","13.2","0.07","0.00"
"21:24:59","61.7","51.8","70","30.24","347","3.7","9.6","0.07","0.00"
"21:29:56","61.6","51.8","70.2","30.24","338","3.8","10.8","0.07","0.00"
"21:34:57","61.6","51.4","69.2","30.24","353","4.9","13.2","0.07","0.00"
"21:39:59","61.6","51.4","69.2","30.24","350","2.7","7.2","0.07","0.00"
"21:44:56","61.5","51.1","68.7","30.25","1","5.2","18","0.07","0.00"
"21:49:58","61.6","50.5","67.1","30.25","328","5","18.4","0.07","0.00"
"21:54:59","61.7","50.6","67","30.25","328","4.1","10.8","0.07","0.00"
"21:59:56","61.7","50.5","66.8","30.26","319","2.6","10.8","0.07","0.00"
"22:04:57","61.5","50","66.1","30.26","338","3.9","13.2","0.07","0.00"
"22:09:56","61.3","50.1","66.7","30.26","338","2.7","7.2","0.07","0.00"
"22:14:57","61.1","49.7","66","30.27","342","5","15.6","0.07","0.00"
"22:19:59","61","49","64.9","30.27","346","3.2","10.8","0.07","0.00"
"22:24:59","60.8","48.2","63.1","30.27","343","5.6","17.3","0.07","0.00"
"22:29:57","60.7","47.6","62","30.27","335","5.7","17.3","0.07","0.00"
"22:34:58","60.5","47.3","61.6","30.27","338","5.4","18","0.07","0.00"
"22:39:59","60.4","46.9","61","30.27","343","7.2","18.4","0.07","0.00"
"22:44:56","60.3","46.6","60.6","30.28","338","6","15","0.07","0.00"
"22:49:57","60.1","46.6","61","30.28","345","6.1","16.8","0.07","0.00"
"22:54:59","60","46","59.8","30.28","343","6","17.3","0.07","0.00"
"22:59:56","59.9","45.2","58.3","30.28","336","8.3","17.3","0.07","0.00"
"23:04:57","59.9","45.2","58.4","30.28","337","5.4","14.4","0.07","0.00"
"23:09:59","59.6","44.6","57.6","30.28","337","7","26.5","0.07","0.00"
"23:14:57","59.4","43.8","56.2","30.28","329","6.4","12","0.07","0.00"
"23:19:59","59.3","43.3","55.5","30.28","339","6.3","21.6","0.07","0.00"
"23:24:59","59.1","42.5","54","30.28","341","7.9","23","0.07","0.00"
"23:29:58","58.9","42.5","54.4","30.29","323","2.6","7.2","0.07","0.00"
"23:34:59","58.7","42.3","54.3","30.29","346","5.9","16.1","0.07","0.00"
"23:39:59","58.6","41.7","53.3","30.29","337","5.6","13.2","0.07","0.00"
